FW0503 Weather Reports


Display with metric or nautical units.
time (UTC)temp
F
wind
direction
speed
MPH
gust
MPH
rain 1hr
in
rain 24hr
in
rain mn
in
humidity
%
barometer
mb
20260505100246 47 240 0.0 0.0 0.00 0.01 0.00 83 1009.4
20260505095746 46 240 0.0 0.0 0.00 0.01 0.00 83 1009.4
20260505095502 47 240 0.0 0.0 0.00 0.01 0.00 82 1009.3
20260505094746 47 240 0.0 0.0 0.00 0.01 0.00 83 1009.3
20260505094236 47 240 0.0 0.0 0.00 0.01 0.00 82 1009.2
20260505093736 47 240 0.0 0.0 0.00 0.01 0.00 82 1009.3
20260505093221 47 240 0.0 0.0 0.00 0.01 0.00 81 1009.3
20260505092706 47 240 0.0 0.0 0.00 0.01 0.00 81 1009.3
20260505092157 47 240 0.0 0.0 0.00 0.01 0.00 81 1009.2
20260505091641 47 240 0.0 0.0 0.00 0.01 0.00 79 1009.2
20260505091136 48 240 0.0 0.0 0.00 0.01 0.00 78 1009.3
20260505090631 48 240 0.0 1.0 0.00 0.01 0.00 76 1009.3
20260505090131 49 240 0.0 1.0 0.00 0.01 0.00 77 1009.3
20260505085627 49 240 0.0 1.0 0.00 0.01 0.00 77 1009.4
20260505085127 49 240 0.0 2.0 0.00 0.01 0.00 76 1009.4
20260505084616 49 240 0.0 2.0 0.00 0.01 0.00 78 1009.4
20260505084116 48 48 0.0 1.0 0.00 0.01 0.00 77 1009.4
20260505083612 48 48 0.0 0.0 0.00 0.01 0.00 75 1009.4
20260505083101 49 48 0.0 1.0 0.00 0.01 0.00 75 1009.4
20260505082602 49 48 0.0 1.0 0.00 0.01 0.00 76 1009.5
20260505082102 48 73 0.0 0.0 0.00 0.01 0.00 77 1009.7
20260505081602 48 73 0.0 0.0 0.00 0.01 0.00 77 1009.7
20260505081102 49 73 0.0 0.0 0.00 0.01 0.00 75 1009.7
20260505080822 49 73 0.0 0.0 0.00 0.01 0.00 73 1009.8
20260505080058 50 73 0.0 2.0 0.00 0.01 0.00 73 1009.9
20260505075553 50 74 0.0 2.0 0.00 0.01 0.00 73 1009.8
20260505075314 50 74 0.0 0.0 0.00 0.01 0.00 73 1010.0
20260505074548 51 74 0.0 1.0 0.00 0.01 0.00 72 1010.0
20260505074044 51 74 0.0 1.0 0.00 0.01 0.00 72 1010.0
20260505073538 51 74 0.0 1.0 0.00 0.01 0.00 71 1010.0
20260505073034 52 74 0.0 1.0 0.00 0.01 0.00 71 1010.1
20260505072528 52 74 0.0 1.0 0.00 0.01 0.00 70 1010.1
20260505072029 53 72 0.0 0.0 0.00 0.01 0.00 69 1010.1
20260505071752 53 72 0.0 1.0 0.00 0.01 0.00 68 1010.1
20260505071029 53 72 0.0 1.0 0.00 0.01 0.00 68 1009.9
20260505070755 53 72 0.0 1.0 0.00 0.01 0.00 68 1010.0
20260505070250 53 129 0.0 0.0 0.00 0.01 0.00 68 1010.1
20260505065514 53 129 0.0 0.0 0.00 0.01 0.00 69 1010.1
20260505065010 53 129 0.0 0.0 0.00 0.01 0.00 67 1010.1
20260505064509 53 129 0.0 0.0 0.00 0.01 0.00 67 1010.1
20260505064004 53 129 0.0 0.0 0.00 0.01 0.00 67 1010.1
20260505063500 54 129 0.0 0.0 0.00 0.01 0.00 65 1009.9
20260505063000 55 129 0.0 0.0 0.00 0.01 0.00 64 1009.7
20260505062726 55 129 0.0 1.0 0.00 0.01 0.01 63 1009.8
20260505062001 56 129 0.0 1.0 0.00 0.01 0.01 62 1009.8
20260505061500 56 129 0.0 2.0 0.00 0.01 0.01 62 1009.8
20260505061214 56 131 1.0 2.0 0.00 0.01 0.01 62 1009.8
20260505060714 56 134 0.0 2.0 0.00 0.01 0.01 61 1009.8
20260505055956 56 119 1.0 2.0 0.00 0.01 0.01 61 1009.9
20260505055456 57 110 1.0 2.0 0.00 0.01 0.01 61 1009.8
20260505054956 57 70 0.0 1.0 0.00 0.01 0.01 61 1009.8
20260505054451 57 70 0.0 2.0 0.00 0.01 0.01 61 1009.8
20260505053947 57 70 0.0 2.0 0.00 0.01 0.01 61 1009.8
20260505053446 58 141 1.0 2.0 0.00 0.01 0.01 60 1009.9
20260505052926 58 126 0.0 3.0 0.00 0.01 0.01 59 1009.9
20260505052427 58 110 1.0 3.0 0.00 0.01 0.01 59 1010.0
20260505051926 58 101 0.0 7.0 0.00 0.01 0.01 57 1010.0
20260505051427 59 284 0.0 7.0 0.00 0.01 0.01 57 1010.0
20260505050926 59 221 1.0 2.0 0.00 0.01 0.01 56 1010.1
20260505050645 59 270 0.0 2.0 0.00 0.01 0.01 55 1010.0
20260505041348 60 335 1.0 4.0 0.00 0.01 0.01 53 1010.0
20260505040849 61 59 0.0 3.0 0.00 0.01 0.01 52 1009.9
20260505040612 61 124 1.0 3.0 0.00 0.01 0.01 52 1010.0
20260505035848 61 119 0.0 1.0 0.00 0.01 0.01 54 1010.0
20260505035608 62 119 0.0 4.0 0.00 0.01 0.01 53 1010.1
20260505034848 62 138 0.0 4.0 0.00 0.01 0.01 52 1010.0
20260505034343 62 125 1.0 4.0 0.00 0.01 0.01 52 1009.9
20260505033845 62 119 0.0 6.0 0.00 0.01 0.01 50 1009.9
20260505033340 62 131 1.0 6.0 0.00 0.01 0.01 50 1009.8
20260505032839 62 126 1.0 4.0 0.00 0.01 0.01 50 1009.8
20260505032339 62 108 0.0 2.0 0.00 0.01 0.01 49 1009.5
20260505032103 62 250 0.0 1.0 0.00 0.01 0.01 46 1009.5
20260505031601 63 252 0.0 1.0 0.00 0.01 0.01 46 1009.4
20260505031056 63 252 0.0 2.0 0.00 0.01 0.01 44 1009.2
20260505030320 63 252 1.0 2.0 0.00 0.01 0.01 44 1009.0
20260505025820 64 272 0.0 3.0 0.00 0.01 0.01 44 1009.2
20260505025320 64 291 2.0 4.0 0.00 0.01 0.01 44 1009.1
20260505024820 64 283 1.0 8.0 0.00 0.01 0.01 44 1009.0
20260505024321 63 335 3.0 9.0 0.00 0.01 0.01 44 1008.7
20260505023820 63 42 5.0 9.0 0.00 0.01 0.01 46 1008.7
20260505023315 63 306 4.0 6.0 0.00 0.01 0.01 46 1009.0
20260505022816 64 302 2.0 8.0 0.00 0.01 0.01 46 1009.0
20260505022315 64 271 4.0 10.0 0.00 0.01 0.01 46 1009.1
20260505021816 64 272 4.0 10.0 0.00 0.01 0.01 48 1009.0
20260505021316 64 280 4.0 6.0 0.00 0.01 0.01 48 1008.9
20260505021043 64 283 4.0 8.0 0.00 0.01 0.01 46 1008.9
20260505020538 64 319 5.0 8.0 0.00 0.01 0.01 46 1008.6
20260505015812 65 74 3.0 11.0 0.00 0.01 0.01 46 1008.5
20260505015311 65 326 4.0 11.0 0.00 0.01 0.01 44 1008.5
20260505015030 66 287 3.0 10.0 0.00 0.01 0.01 43 1008.4
20260505014307 66 293 6.0 12.0 0.00 0.01 0.01 41 1008.3
20260505014028 67 287 7.0 15.0 0.00 0.01 0.01 39 1008.3
20260505013751 69 311 7.0 17.0 0.00 0.01 0.01 36 1008.2
20260505012807 70 300 9.0 17.0 0.00 0.01 0.01 33 1007.9
20260505012307 70 281 4.0 13.0 0.00 0.01 0.01 32 1007.7
20260505012031 70 225 6.0 13.0 0.00 0.01 0.01 32 1007.6
20260505011303 70 269 4.0 12.0 0.00 0.01 0.01 31 1007.6
20260505010803 70 249 4.0 12.0 0.00 0.01 0.01 31 1007.7
20260505010303 71 1 3.0 8.0 0.00 0.01 0.01 32 1007.7
20260505005802 71 278 3.0 8.0 0.00 0.01 0.01 31 1007.9
20260505005304 71 189 2.0 9.0 0.00 0.01 0.01 31 1007.8
20260505004758 72 12 4.0 9.0 0.00 0.01 0.01 31 1007.8
20260505004253 72 226 4.0 9.0 0.00 0.01 0.01 31 1007.8
20260505004011 72 231 2.0 6.0 0.00 0.01 0.01 30 1007.8
20260505003254 72 243 4.0 12.0 0.00 0.01 0.01 30 1007.8
20260505002753 73 234 6.0 12.0 0.00 0.01 0.01 30 1007.9
20260505002253 73 239 2.0 7.0 0.00 0.01 0.01 31 1007.8
20260505001750 73 15 2.0 7.0 0.00 0.01 0.01 31 1007.9
20260505001250 73 324 2.0 6.0 0.00 0.01 0.01 31 1007.9
20260505001006 73 258 2.0 10.0 0.00 0.01 0.01 32 1008.1
20260505000249 73 286 2.0 10.0 0.00 0.01 0.01 32 1008.1
20260504235750 72 75 2.0 6.0 0.00 0.01 0.01 33 1008.1
20260504235250 72 105 2.0 7.0 0.00 0.01 0.01 34 1008.2
20260504234745 71 337 3.0 7.0 0.00 0.01 0.01 35 1008.2
20260504234240 71 26 2.0 8.0 0.00 0.01 0.01 35 1008.4
20260504233740 71 104 2.0 12.0 0.00 0.01 0.01 35 1008.4
20260504233241 71 103 4.0 19.0 0.00 0.01 0.01 35 1008.5
20260504233001 71 303 6.0 19.0 0.00 0.01 0.01 35 1008.5
20260504232458 72 103 1.0 5.0 0.00 0.01 0.01 32 1008.5
20260504231736 72 297 4.0 5.0 0.00 0.01 0.01 31 1008.5
20260504231235 72 132 1.0 4.0 0.00 0.01 0.01 32 1008.5
20260504230736 72 124 1.0 5.0 0.00 0.01 0.01 33 1008.7
20260504230236 72 73 1.0 5.0 0.00 0.01 0.01 34 1008.7
20260504225737 72 70 0.0 4.0 0.00 0.01 0.01 38 1008.7
20260504225231 72 148 1.0 4.0 0.00 0.01 0.01 42 1008.5
20260504224949 72 26 2.0 4.0 0.00 0.01 0.01 40 1008.5
20260504224230 72 333 2.0 7.0 0.00 0.01 0.01 35 1008.5
20260504223731 72 15 4.0 7.0 0.00 0.01 0.01 35 1008.4
20260504223230 72 40 1.0 4.0 0.00 0.01 0.01 35 1008.5
20260504222732 72 324 1.0 4.0 0.00 0.01 0.01 35 1008.6
20260504222228 73 226 2.0 4.0 0.00 0.01 0.01 34 1008.5
20260504221722 73 245 1.0 6.0 0.00 0.01 0.01 35 1008.7
20260504221219 73 266 2.0 6.0 0.00 0.01 0.01 35 1008.5
20260504220713 72 23 2.0 7.0 0.00 0.01 0.01 34 1008.5
20260504220212 73 15 3.0 8.0 0.00 0.01 0.01 33 1008.6
20260504215713 73 344 3.0 9.0 0.00 0.01 0.01 33 1008.6
20260504215701 73 261 4.0 9.0 0.00 0.01 0.01 32 1008.7
20260504214714 73 308 3.0 7.0 0.00 0.01 0.01 33 1008.7
20260504214209 73 53 1.0 8.0 0.00 0.01 0.01 33 1008.9
20260504213709 73 131 5.0 9.0 0.00 0.01 0.01 33 1008.7
20260504213208 74 117 4.0 9.0 0.00 0.01 0.01 31 1008.9
20260504212709 73 66 2.0 4.0 0.00 0.01 0.01 31 1009.0
20260504212209 72 295 0.0 11.0 0.00 0.01 0.01 31 1009.2
20260504211704 71 253 5.0 11.0 0.00 0.01 0.01 32 1009.4
20260504211159 71 321 5.0 11.0 0.00 0.01 0.01 32 1009.5
20260504210659 73 242 4.0 8.0 0.00 0.01 0.01 31 1009.5
20260504210159 75 221 2.0 5.0 0.00 0.01 0.01 30 1009.5
20260504205700 75 283 2.0 5.0 0.00 0.01 0.01 30 1009.4
20260504205426 76 83 1.0 5.0 0.00 0.01 0.01 30 1009.4
20260504204659 76 58 0.0 4.0 0.00 0.01 0.01 30 1009.5
20260504204639 75 108 1.0 5.0 0.00 0.01 0.01 30 1009.7
20260504203655 75 263 2.0 5.0 0.00 0.01 0.01 30 1009.7
20260504203416 75 29 2.0 5.0 0.00 0.01 0.01 30 1009.7
20260504202923 75 115 1.0 2.0 0.00 0.01 0.01 31 1009.8
20260504202418 74 123 1.0 3.0 0.00 0.01 0.01 34 1009.8
20260504201650 73 81 1.0 6.0 0.00 0.01 0.01 31 1010.0
20260504201419 72 48 2.0 10.0 0.00 0.01 0.01 33 1010.0
20260504200651 72 247 3.0 10.0 0.00 0.01 0.01 33 1010.1
20260504200152 73 292 4.0 7.0 0.00 0.01 0.01 32 1010.0
20260504195652 73 332 2.0 7.0 0.00 0.01 0.01 33 1010.1
20260504195152 72 247 1.0 7.0 0.00 0.01 0.01 34 1010.2
20260504194647 72 336 3.0 7.0 0.00 0.01 0.01 34 1010.4
20260504194148 71 279 1.0 9.0 0.00 0.01 0.01 35 1010.4
20260504193920 70 255 1.0 9.0 0.00 0.01 0.01 36 1010.5
20260504193147 70 293 3.0 7.0 0.00 0.01 0.01 36 1010.6
20260504192647 70 340 3.0 9.0 0.00 0.01 0.01 37 1010.6
20260504192147 69 297 3.0 9.0 0.00 0.01 0.01 38 1010.7
20260504191648 69 10 5.0 9.0 0.00 0.01 0.01 37 1010.8
20260504191143 70 10 7.0 9.0 0.00 0.01 0.01 37 1010.9
20260504190638 71 67 2.0 6.0 0.00 0.01 0.01 36 1010.9
20260504190138 71 122 1.0 6.0 0.00 0.01 0.01 38 1010.9
20260504185638 69 86 3.0 6.0 0.00 0.01 0.01 39 1011.0
20260504185139 69 13 3.0 6.0 0.00 0.01 0.01 40 1011.0
20260504184639 68 4 1.0 4.0 0.00 0.01 0.01 39 1011.3
20260504184138 69 304 3.0 4.0 0.00 0.01 0.01 39 1011.4
20260504183856 69 103 0.0 4.0 0.00 0.01 0.01 39 1011.5
20260504183355 68 304 2.0 4.0 0.00 0.01 0.01 39 1011.6
20260504182629 69 64 1.0 5.0 0.00 0.01 0.01 41 1011.7
20260504182129 68 1 1.0 5.0 0.01 0.01 0.01 41 1012.0
20260504181843 67 56 2.0 6.0 0.01 0.01 0.01 44 1012.0
20260504181124 66 63 3.0 6.0 0.01 0.01 0.01 43 1012.1
20260504180619 66 105 1.0 4.0 0.01 0.01 0.01 46 1012.2
20260504180115 65 70 2.0 4.0 0.01 0.01 0.01 46 1012.4
20260504175615 64 288 1.0 2.0 0.01 0.01 0.01 50 1012.5
20260504175116 64 309 0.0 3.0 0.01 0.01 0.01 49 1012.6
20260504174615 63 41 1.0 3.0 0.01 0.01 0.01 51 1012.6
20260504174110 63 64 0.0 2.0 0.01 0.01 0.01 50 1012.8
20260504173605 63 101 0.0 1.0 0.01 0.01 0.01 56 1012.8
20260504173106 62 101 0.0 3.0 0.01 0.01 0.01 61 1012.8
20260504172606 62 102 1.0 3.0 0.01 0.01 0.01 64 1012.9
20260504172105 62 110 0.0 3.0 0.00 0.00 0.00 62 1013.0
20260504171606 62 48 1.0 5.0 0.00 0.00 0.00 56 1013.0
20260504171105 63 30 2.0 5.0 0.00 0.00 0.00 54 1013.0
20260504170602 64 32 2.0 3.0 0.00 0.00 0.00 54 1012.8
20260504151028 61 74 4.0 13.0 0.00 0.00 0.00 51 1013.8
20260504150523 61 124 5.0 15.0 0.00 0.00 0.00 51 1013.8
20260504141013 61 314 6.0 13.0 0.00 0.00 0.00 51 1013.8
20260504140514 60 16 5.0 13.0 0.00 0.00 0.00 53 1013.9
20260504130500 58 134 3.0 10.0 0.00 0.00 0.00 56 1013.6
20260504130442 57 109 2.0 5.0 0.00 0.00 0.00 59 1013.6
20260504110656 57 109 2.0 6.0 0.00 0.00 0.00 60 1013.9
20260504110155 57 119 3.0 6.0 0.00 0.00 0.00 60 1013.8